• In Italy
  • List of Countries
  • For 7 days
  • Water Temperature
  • Satellite Maps
  • Weather Map
  • Weather Widgets
  • user-avatar
    Login

    Hourly Weather Benguela

    Today, 19 June, Tuesday

    Time Temperature Precipitation Wind Pressure Humidity
    00:00 +24°C° 0 mm 2 mps 761 mmHg 93%
    01:00 +23°C° 0 mm 2 mps 761 mmHg 93%
    02:00 +23°C° 0 mm 2 mps 761 mmHg 93%
    03:00 +23°C° 0 mm 2 mps 761 mmHg 93%
    04:00 +23°C° 0 mm 2 mps 761 mmHg 93%
    05:00 +23°C° 0 mm 1 mps 761 mmHg 92%
    06:00 +23°C° 0 mm 1 mps 761 mmHg 92%
    07:00 +23°C° 0 mm 1 mps 761 mmHg 91%
    08:00 +26°C° 0 mm 1 mps 761 mmHg 78%
    09:00 +29°C° 0 mm 1 mps 761 mmHg 65%
    10:00 +31°C° 0 mm 1 mps 761 mmHg 52%
    11:00 +32°C° 0 mm 2 mps 761 mmHg 48%
    12:00 +35°C° 0 mm 3 mps 760 mmHg 44%
    13:00 +36°C° 0 mm 4 mps 760 mmHg 40%
    14:00 +35°C° 0 mm 4 mps 759 mmHg 45%
    15:00 +33°C° 0 mm 4 mps 759 mmHg 50%
    16:00 +32°C° 0 mm 4 mps 759 mmHg 55%
    17:00 +29°C° 0 mm 3 mps 759 mmHg 67%
    18:00 +27°C° 0 mm 3 mps 760 mmHg 78%
    19:00 +25°C° 0 mm 2 mps 760 mmHg 90%
    20:00 +24°C° 0 mm 2 mps 761 mmHg 91%
    21:00 +24°C° 0 mm 1 mps 761 mmHg 92%
    22:00 +24°C° 0 mm 1 mps 762 mmHg 92%
    23:00 +24°C° 0 mm 1 mps 761 mmHg 93%

    Tomorrow, 20 June, Wednesday

    Time Temperature Precipitation Wind Pressure Humidity
    00:00 +23°C° 0 mm 1 mps 761 mmHg 94%
    01:00 +23°C° 0 mm 1 mps 761 mmHg 95%
    02:00 +23°C° 0 mm 1 mps 761 mmHg 94%
    03:00 +23°C° 0 mm 1 mps 760 mmHg 93%
    04:00 +22°C° 0 mm 1 mps 760 mmHg 93%
    05:00 +22°C° 0 mm 1 mps 760 mmHg 92%
    06:00 +22°C° 0 mm 1 mps 761 mmHg 90%
    07:00 +23°C° 0 mm 1 mps 761 mmHg 89%
    08:00 +25°C° 0 mm 1 mps 761 mmHg 76%
    09:00 +28°C° 0 mm 1 mps 761 mmHg 64%
    10:00 +31°C° 0 mm 2 mps 762 mmHg 51%
    11:00 +32°C° 0 mm 2 mps 761 mmHg 50%
    12:00 +34°C° 0 mm 3 mps 761 mmHg 49%
    13:00 +34°C° 0 mm 4 mps 760 mmHg 48%
    14:00 +33°C° 0 mm 3 mps 760 mmHg 54%
    15:00 +31°C° 0 mm 3 mps 759 mmHg 60%
    16:00 +29°C° 0 mm 3 mps 759 mmHg 66%
    17:00 +28°C° 0 mm 3 mps 760 mmHg 74%
    18:00 +26°C° 0 mm 2 mps 760 mmHg 82%
    19:00 +24°C° 0 mm 2 mps 761 mmHg 90%
    20:00 +24°C° 0 mm 1 mps 761 mmHg 90%
    21:00 +24°C° 0 mm 1 mps 762 mmHg 90%
    22:00 +21°C° 0 mm 0 mps 763 mmHg 91%
    23:00 +21°C° 0 mm 0 mps 763 mmHg 91%

    Day after tomorrow, 21 June, Thursday

    Time Temperature Precipitation Wind Pressure Humidity
    00:00 +23°C° 0 mm 1 mps 763 mmHg 91%
    01:00 +23°C° 0 mm 1 mps 762 mmHg 91%
    02:00 +23°C° 0 mm 1 mps 762 mmHg 92%
    03:00 +22°C° 0 mm 1 mps 762 mmHg 93%
    04:00 +22°C° 0 mm 1 mps 762 mmHg 94%
    05:00 +22°C° 0 mm 1 mps 762 mmHg 93%
    06:00 +23°C° 0 mm 1 mps 762 mmHg 93%
    07:00 +21°C° 0 mm 0 mps 762 mmHg 92%
    08:00 +25°C° 0 mm 1 mps 763 mmHg 79%
    09:00 +28°C° 0 mm 1 mps 763 mmHg 67%
    10:00 +31°C° 0 mm 1 mps 763 mmHg 54%
    11:00 +32°C° 0 mm 2 mps 762 mmHg 52%
    12:00 +34°C° 0 mm 3 mps 761 mmHg 49%
    13:00 +35°C° 0 mm 3 mps 761 mmHg 46%
    14:00 +33°C° 0 mm 3 mps 760 mmHg 51%
    15:00 +31°C° 0 mm 3 mps 760 mmHg 56%
    16:00 +30°C° 0 mm 3 mps 759 mmHg 61%
    17:00 +28°C° 0 mm 3 mps 760 mmHg 70%
    18:00 +26°C° 0 mm 3 mps 761 mmHg 80%
    19:00 +24°C° 0 mm 2 mps 761 mmHg 90%
    20:00 +24°C° 0 mm 2 mps 762 mmHg 91%
    21:00 +24°C° 0 mm 1 mps 762 mmHg 92%
    22:00 +23°C° 0 mm 1 mps 763 mmHg 94%
    23:00 +23°C° 0 mm 1 mps 763 mmHg 94%

    22 June, Friday

    Time Temperature Precipitation Wind Pressure Humidity
    00:00 +23°C° 0 mm 1 mps 762 mmHg 94%
    01:00 +23°C° 0 mm 1 mps 762 mmHg 94%
    02:00 +23°C° 0 mm 1 mps 762 mmHg 94%
    03:00 +23°C° 0 mm 1 mps 761 mmHg 94%
    04:00 +23°C° 0 mm 1 mps 761 mmHg 93%
    05:00 +23°C° 0 mm 1 mps 761 mmHg 92%
    06:00 +23°C° 0 mm 1 mps 762 mmHg 90%
    07:00 +23°C° 0 mm 1 mps 762 mmHg 89%
    08:00 +27°C° 0 mm 1 mps 762 mmHg 74%
    09:00 +30°C° 0 mm 1 mps 762 mmHg 60%
    10:00 +34°C° 0 mm 2 mps 762 mmHg 45%
    11:00 +35°C° 0 mm 3 mps 761 mmHg 43%
    12:00 +36°C° 0 mm 3 mps 761 mmHg 41%
    13:00 +36°C° 0 mm 4 mps 760 mmHg 39%
    14:00 +35°C° 0 mm 4 mps 759 mmHg 46%
    15:00 +34°C° 0 mm 4 mps 759 mmHg 52%
    16:00 +31°C° 0 mm 3 mps 759 mmHg 58%
    17:00 +29°C° 0 mm 3 mps 759 mmHg 69%
    18:00 +27°C° 0 mm 3 mps 760 mmHg 80%
    19:00 +25°C° 0 mm 2 mps 761 mmHg 90%
    20:00 +25°C° 0 mm 2 mps 761 mmHg 91%
    21:00 +24°C° 0 mm 1 mps 762 mmHg 93%
    22:00 +24°C° 0 mm 1 mps 762 mmHg 94%
    23:00 +24°C° 0 mm 1 mps 762 mmHg 94%

    23 June, Saturday

    Time Temperature Precipitation Wind Pressure Humidity
    00:00 +24°C° 0 mm 1 mps 762 mmHg 95%
    01:00 +24°C° 0 mm 1 mps 761 mmHg 95%
    02:00 +23°C° 0 mm 1 mps 761 mmHg 95%
    03:00 +23°C° 0 mm 1 mps 761 mmHg 95%
    04:00 +23°C° 0 mm 1 mps 761 mmHg 95%
    05:00 +23°C° 0 mm 1 mps 761 mmHg 94%
    06:00 +23°C° 0 mm 1 mps 761 mmHg 92%
    07:00 +21°C° 0 mm 0 mps 761 mmHg 91%
    08:00 +27°C° 0 mm 1 mps 761 mmHg 75%
    09:00 +30°C° 0 mm 1 mps 761 mmHg 59%
    10:00 +33°C° 0 mm 1 mps 761 mmHg 44%
    11:00 +35°C° 0 mm 2 mps 761 mmHg 42%
    12:00 +36°C° 0 mm 3 mps 760 mmHg 40%
    13:00 +37°C° 0 mm 4 mps 759 mmHg 38%
    14:00 +35°C° 0 mm 4 mps 759 mmHg 45%
    15:00 +34°C° 0 mm 3 mps 758 mmHg 51%
    16:00 +33°C° 0 mm 3 mps 758 mmHg 58%
    17:00 +30°C° 0 mm 3 mps 758 mmHg 68%
    18:00 +28°C° 0 mm 2 mps 759 mmHg 78%
    19:00 +26°C° 0 mm 2 mps 760 mmHg 87%
    20:00 +25°C° 0 mm 2 mps 760 mmHg 89%
    21:00 +25°C° 0 mm 1 mps 760 mmHg 90%
    22:00 +25°C° 0 mm 1 mps 760 mmHg 91%
    23:00 +25°C° 0 mm 1 mps 760 mmHg 92%

    24 June, Sunday

    Time Temperature Precipitation Wind Pressure Humidity
    00:00 +24°C° 0 mm 1 mps 760 mmHg 92%
    01:00 +24°C° 0 mm 1 mps 760 mmHg 93%
    02:00 +24°C° 0 mm 1 mps 759 mmHg 90%
    03:00 +24°C° 0 mm 1 mps 759 mmHg 88%
    04:00 +24°C° 0 mm 1 mps 759 mmHg 85%
    05:00 +24°C° 0 mm 1 mps 760 mmHg 80%
    06:00 +24°C° 0 mm 1 mps 760 mmHg 75%
    07:00 +24°C° 0 mm 1 mps 760 mmHg 70%
    08:00 +27°C° 0 mm 1 mps 760 mmHg 59%
    09:00 +30°C° 0 mm 1 mps 760 mmHg 48%
    10:00 +34°C° 0 mm 2 mps 761 mmHg 37%
    11:00 +35°C° 0 mm 2 mps 760 mmHg 37%
    12:00 +36°C° 0 mm 3 mps 759 mmHg 37%
    13:00 +37°C° 0 mm 3 mps 759 mmHg 37%
    14:00 +36°C° 0 mm 3 mps 758 mmHg 41%
    15:00 +35°C° 0 mm 3 mps 758 mmHg 45%
    16:00 +34°C° 0 mm 3 mps 758 mmHg 49%
    17:00 +31°C° 0 mm 3 mps 758 mmHg 59%
    18:00 +29°C° 0 mm 3 mps 759 mmHg 70%
    19:00 +27°C° 0 mm 2 mps 759 mmHg 80%
    20:00 +26°C° 0 mm 2 mps 760 mmHg 82%
    21:00 +26°C° 0 mm 2 mps 760 mmHg 84%
    22:00 +25°C° 0 mm 1 mps 760 mmHg 86%
    23:00 +25°C° 0 mm 1 mps 760 mmHg 85%
    Show more